GFSFLT2_850_temp_327.txt.gz
Temp
11 11 11 11 12 12 13 13 12 12 12 12 12 12 12 12 12 12 13 13 13 13 13 13 14 14 14 14 14 14 14 15
11 10 11 11 12 12 12 12 12 12 11 11 12 11 12 12 12 12 12 12 12 13 13 13 13 13 14 14 14 14 14 15
10 10 10 11 11 11 11 11 11 11 11 11 11 11 11 12 12 12 12 12 12 12 12 13 13 13 13 14 14 14 14 14
10 10 10 10 11 11 11 11 11 11 11 11 11 11 12 12 12 12 12 12 12 13 13 12 13 13 13 13 13 14 14 14
10 10 10 10 10 10 11 11 11 10 11 11 11 11 11 11 11 12 12 12 12 13 13 13 13 13 13 13 13 13 13 14
9 9 9 9 10 10 11 11 10 10 10 10 10 11 11 11 11 11 11 11 11 12 12 12 12 13 13 13 13 13 13 13
9 9 9 9 10 10 10 10 10 10 10 10 10 10 9 9 9 10 10 10 10 11 11 11 12 12 12 12 12 13 13 12
9 9 9 9 9 10 10 9 9 9 9 9 9 9 9 9 9 9 9 9 9 9 10 10 10 10 10 10 10 10 10 10
9 9 9 8 9 9 9 9 9 9 9 8 8 8 8 8 8 8 8 8 9 9 9 9 8 8 8 8 8 9 9 9
9 9 9 8 8 8 8 8 8 8 8 8 8 8 8 8 8 8 8 8 8 9 9 9 8 7 8 8 8 8 8 8
10 9 9 8 8 8 8 8 8 8 7 7 7 7 7 8 8 7 7 7 7 7 7 8 8 8 7 7 8 8 8 8
9 9 9 9 8 8 8 8 8 7 8 8 8 8 8 8 8 8 8 8 8 7 7 6 7 8 8 8 7 8 7 7
10 10 9 9 9 8 8 8 8 8 8 8 8 8 7 7 7 7 7 7 7 7 7 7 5 6 5 6 7 7 7 6
10 10 10 9 9 9 8 8 8 8 8 8 8 7 7 7 7 7 7 7 7 7 7 6 4 5 4 5 6 6 6 5
11 10 10 9 9 9 8 8 8 8 8 8 7 7 7 7 7 7 7 7 7 7 6 6 5 3 4 3 5 6 4 4
11 10 10 9 9 9 8 8 8 8 8 7 7 7 6 6 6 7 7 6 6 6 5 5 5 4 2 3 3 2 2 4
11 10 10 9 9 9 8 8 8 8 8 7 6 6 6 6 6 6 6 6 5 5 4 4 3 3 2 1 1 2 1 0
11 10 10 9 9 8 8 8 8 8 7 6 6 6 6 5 5 5 5 4 4 3 3 3 2 1 1 0 -1 -1 -1 -1
11 10 9 9 9 8 8 8 8 7 6 6 6 5 5 5 4 4 4 3 2 2 1 1 1 -0 -1 -1 -2 -3 -3 -3
11 10 9 9 9 8 8 8 7 6 6 6 5 5 4 4 3 3 2 1 1 1 0 -0 -1 -1 -2 -3 -4 -4 -4 -4

GFSFLT2_850_temp_333.txt.gz
Temp
10 10 11 12 12 12 12 12 12 11 11 11 11 12 12 12 12 13 13 13 13 13 13 13 14 14 14 14 15 15 15 16
10 10 10 11 11 11 11 11 11 11 11 11 12 11 12 12 13 13 13 13 13 13 13 13 13 13 13 14 14 15 15 16
11 10 10 10 9 11 10 11 11 11 10 11 10 10 10 10 12 12 12 12 13 13 13 13 13 13 13 13 14 15 15 16
11 10 10 10 10 9 10 10 9 9 9 9 10 10 10 10 11 11 11 11 11 11 11 11 11 12 13 13 13 13 14 14
11 10 10 10 10 11 11 10 10 9 9 9 9 9 10 11 11 11 11 10 11 11 11 11 10 10 11 11 11 13 13 12
11 10 11 10 11 11 10 10 10 9 8 9 9 9 10 10 10 10 11 11 10 10 11 10 10 10 10 10 10 11 12 12
11 10 9 10 10 9 9 9 9 9 8 9 9 9 9 10 10 10 10 10 10 10 10 10 11 11 10 10 10 10 10 10
10 9 9 10 10 9 9 9 9 9 8 8 8 8 9 9 9 9 9 9 9 9 9 10 10 10 10 10 10 9 9 9
10 9 9 9 9 9 9 9 9 9 8 9 8 8 8 9 9 9 9 9 9 9 9 10 10 10 10 11 10 10 9 9
10 10 9 9 9 9 9 9 9 9 9 8 8 8 7 9 9 8 8 9 8 8 9 9 9 10 10 10 10 10 9 9
10 10 9 9 8 9 9 8 9 9 9 8 8 8 8 8 8 7 8 8 8 7 7 8 8 9 9 10 10 10 10 9
11 10 9 9 8 8 9 9 9 9 9 8 8 8 8 7 8 7 7 7 7 6 6 7 8 8 8 9 9 10 9 9
11 10 9 9 9 10 10 10 9 9 8 8 9 9 9 9 7 7 8 6 6 6 6 6 7 7 7 8 9 10 10 9
11 11 10 9 10 10 11 10 10 9 8 9 9 8 8 7 8 8 8 7 7 7 7 6 5 6 6 7 8 9 9 8
11 11 10 9 10 10 10 10 9 9 8 7 8 8 8 8 8 8 8 7 7 6 5 5 4 5 5 6 6 7 6 7
11 11 11 10 10 10 10 10 11 10 9 7 7 8 8 7 7 7 7 6 6 5 4 4 4 4 4 4 4 4 5 5
11 11 11 10 10 10 10 10 11 9 7 8 7 8 7 7 7 7 6 4 4 4 3 3 2 2 2 2 3 3 4 4
11 11 11 10 10 9 10 10 10 9 7 6 6 5 4 5 5 5 3 3 3 3 2 1 1 1 1 1 1 2 2 2
11 11 11 10 10 9 9 9 9 8 8 7 6 6 5 4 4 3 2 2 1 1 0 0 0 -0 -1 -0 0 0 0 0
11 11 11 11 10 9 9 9 8 8 7 7 6 6 5 3 3 2 1 1 0 -0 -1 -0 -1 -1 -1 -1 -1 -1 -1 -1

GFSFLT2_850_temp_339.txt.gz
Temp
11 13 13 13 13 13 12 11 11 11 11 11 11 11 12 12 12 12 11 12 12 12 13 12 13 13 13 14 13 13 14 13
11 12 12 12 12 12 11 11 11 11 10 11 11 11 11 11 11 11 11 11 11 11 12 12 12 13 13 13 13 13 13 13
11 11 11 11 11 11 11 11 11 10 10 10 10 10 11 11 11 10 11 11 10 11 11 12 12 12 13 12 12 11 12 12
11 11 10 10 10 10 10 10 10 10 10 10 10 10 11 10 10 10 10 10 10 10 10 10 11 11 12 12 12 11 11 11
12 12 11 11 10 10 10 10 11 10 10 10 10 10 10 10 10 10 10 10 10 10 10 10 10 10 10 11 11 11 10 10
12 12 11 11 10 10 10 11 10 10 9 9 10 10 10 10 9 10 10 10 10 10 10 10 10 10 10 10 10 10 10 10
12 12 11 10 10 10 10 10 11 10 10 10 9 9 10 10 9 9 9 10 10 11 10 10 10 10 10 10 10 10 10 10
12 12 11 11 11 10 10 10 11 11 11 10 9 9 9 10 9 9 10 10 10 10 10 10 10 10 10 10 10 10 10 10
13 12 12 11 10 9 9 10 11 11 11 10 9 9 9 10 10 10 10 10 10 11 10 10 11 11 10 10 10 10 10 9
12 12 11 10 10 10 9 9 10 10 10 10 9 9 10 10 10 10 10 10 10 10 10 10 10 10 10 10 10 10 9 9
11 11 11 10 10 10 9 9 9 9 9 10 10 9 9 10 9 9 10 9 9 9 9 9 9 10 10 10 9 9 9 9
11 11 11 10 10 10 9 9 9 9 9 9 10 9 9 9 9 9 9 9 9 9 9 9 9 9 9 9 9 9 8 8
12 11 11 10 10 10 9 9 9 9 9 10 9 9 9 9 9 9 9 9 8 8 8 8 8 8 8 9 9 9 9 8
13 11 11 11 10 10 10 10 9 9 9 10 9 9 9 9 9 8 8 8 8 8 7 7 7 6 5 6 6 7 7 7
13 12 11 11 10 10 10 10 10 9 9 9 10 9 9 9 8 8 8 8 7 6 6 6 6 6 4 3 2 3 2 5
13 12 11 11 10 10 10 10 10 10 9 9 9 9 9 8 7 7 7 7 6 5 5 4 4 4 5 4 3 2 1 1
13 12 11 11 10 10 10 10 10 10 9 9 8 8 8 7 7 6 6 6 5 4 4 3 3 2 2 2 2 1 1 -0
13 12 11 11 11 10 10 10 10 10 9 9 9 8 7 6 6 5 5 5 4 3 3 2 1 1 1 0 0 -0 -1 -1
13 13 11 11 11 10 10 10 10 10 9 8 8 7 6 6 5 4 4 3 2 2 1 0 0 -0 -0 -0 -1 -1 -1 -1
13 13 12 11 11 10 10 10 10 9 8 8 7 6 5 5 4 4 4 2 1 1 0 -0 -0 -0 -1 -1 -1 -1 -1 -2

GFSFLT2_850_temp_342.txt.gz
Temp
13 13 13 13 12 11 11 11 11 11 12 11 11 11 11 11 11 11 11 11 11 12 12 12 12 13 12 12 13 12 12 12
12 13 12 12 12 11 11 11 11 11 11 11 11 10 10 10 10 10 10 10 10 11 11 11 12 12 12 12 12 12 12 12
12 12 11 11 11 11 11 10 10 10 10 10 10 10 10 10 10 10 10 10 10 10 10 11 11 11 11 11 11 11 11 11
12 12 10 10 11 11 11 10 10 10 10 10 10 10 10 10 10 10 10 10 10 10 10 11 10 10 10 10 11 11 11 11
12 12 11 10 10 11 11 10 10 10 10 10 10 10 10 10 10 10 11 11 11 11 10 11 10 10 10 10 10 10 10 10
12 11 11 11 10 10 11 10 10 10 10 10 10 10 10 11 11 11 11 11 11 11 11 11 11 10 10 10 9 9 9 9
12 11 11 10 11 11 11 11 10 10 10 10 10 10 10 11 11 11 11 11 11 11 11 11 11 11 10 10 10 9 9 9
12 12 11 10 11 11 11 11 11 10 10 10 10 10 10 10 11 11 11 11 11 11 11 11 11 11 10 10 10 9 9 9
12 12 11 10 10 10 10 11 11 11 10 10 10 10 10 10 11 10 10 10 10 11 11 11 11 10 10 10 10 9 9 9
12 12 11 10 10 10 10 10 10 10 10 10 10 10 10 10 10 10 10 10 10 10 10 10 10 10 10 10 9 8 8 8
13 12 12 10 9 9 9 9 10 10 10 10 10 10 10 10 10 10 10 10 10 9 9 10 10 10 9 9 9 8 8 8
14 13 11 10 9 9 9 9 9 9 10 10 10 10 10 9 10 10 10 9 9 9 8 8 9 9 9 9 9 9 7 7
14 13 11 10 10 9 9 9 9 9 9 10 10 10 9 9 9 9 9 9 8 8 8 8 8 8 8 9 8 8 8 6
14 14 12 11 10 10 10 9 9 9 9 9 10 9 9 9 9 9 8 8 8 7 7 7 6 6 6 6 5 6 6 6
14 14 13 12 11 10 9 9 9 9 9 9 9 9 9 9 9 8 8 7 7 6 6 5 5 5 4 3 2 2 1 3
14 14 13 12 11 10 9 9 9 9 9 9 9 9 8 8 8 7 6 6 6 5 4 4 3 4 3 2 1 1 -0 -0
14 13 13 12 11 10 9 10 10 10 9 9 9 8 7 7 7 6 6 5 5 4 3 3 2 2 1 1 1 1 0 -1
14 13 12 12 11 10 9 10 10 10 10 9 8 7 6 6 6 5 4 4 4 3 2 2 1 0 -0 -1 -1 -1 -1 -1
14 13 12 12 11 10 10 10 10 10 10 9 8 7 6 6 5 4 4 3 2 1 0 -0 -0 -1 -1 -1 -1 -1 -2 -3
14 14 13 12 11 11 10 10 9 9 8 7 7 6 5 4 4 3 2 1 1 1 0 -0 -1 -1 -1 -1 -2 -2 -3 -3

GFSFLT2_850_temp_345.txt.gz
Temp
13 13 13 12 12 12 12 11 11 11 11 10 10 10 10 10 11 10 11 11 11 11 11 11 12 12 12 12 12 12 13 12
12 13 12 12 11 11 11 11 11 11 10 11 10 10 10 10 10 10 10 11 11 11 11 11 11 11 11 11 11 12 12 12
11 12 12 12 11 11 10 11 11 10 10 11 10 10 10 10 10 10 10 10 11 11 11 11 10 10 10 10 10 11 11 11
11 11 11 11 11 11 11 10 10 10 10 10 10 10 10 10 10 10 10 10 10 11 11 11 11 10 10 10 10 10 10 10
12 11 10 11 10 10 10 10 10 10 10 10 10 10 10 11 11 11 11 11 11 11 11 11 11 11 10 10 10 10 9 9
12 11 11 10 10 10 10 10 10 10 10 10 10 11 11 11 11 11 12 11 12 11 11 11 11 11 11 10 10 10 9 9
12 11 11 10 10 10 10 10 9 10 10 10 10 11 10 11 11 11 11 11 11 11 11 11 11 11 11 10 10 10 9 9
13 12 11 11 10 10 10 10 9 10 10 10 11 11 10 11 11 11 11 11 11 11 11 10 10 10 10 10 10 9 9 9
13 12 11 11 11 11 10 10 10 10 10 10 10 10 10 10 10 10 10 10 10 10 10 10 10 10 10 9 9 8 8 8
13 12 11 11 10 10 10 10 9 9 10 10 10 10 10 10 10 10 10 10 10 11 10 10 10 10 9 9 8 8 8 8
14 13 12 11 11 10 9 9 9 10 10 10 10 10 10 10 10 10 10 10 10 10 10 10 9 9 9 8 8 8 7 7
13 13 13 11 11 10 9 9 9 9 9 10 10 9 10 9 9 9 9 9 9 9 9 9 9 8 8 8 7 7 7 6
14 14 13 12 11 10 9 9 9 9 9 9 10 9 9 9 9 9 9 9 8 8 8 8 8 8 8 8 7 7 6 6
14 13 13 12 11 10 10 9 9 9 9 9 9 9 9 9 8 8 8 8 7 7 7 6 6 5 5 5 5 5 6 5
14 14 13 12 11 10 9 9 9 9 9 9 9 9 8 8 8 7 7 6 6 6 5 5 4 4 3 2 2 1 1 3
14 14 13 12 11 10 10 9 9 10 9 9 9 8 8 7 7 6 6 6 5 5 4 4 3 3 2 1 1 0 -1 -1
14 14 13 12 11 10 10 9 9 9 9 9 8 8 7 7 6 6 5 5 4 3 2 2 2 1 0 0 -0 -1 -1 -1
14 14 13 12 11 10 10 9 10 9 9 9 8 7 7 7 6 5 4 4 4 2 2 2 1 0 0 -0 -1 -2 -2 -3
14 13 13 12 10 10 10 10 10 9 9 9 8 8 7 6 4 3 3 3 2 2 1 0 -0 -1 -1 -2 -2 -2 -3 -3
14 14 13 12 10 10 10 9 9 9 9 8 7 6 5 4 4 3 2 1 1 0 -0 -1 -1 -2 -2 -3 -3 -4 -4 -5

GFSFLT2_850_temp_348.txt.gz
Temp
13 12 12 12 11 11 10 10 11 11 11 10 10 10 10 10 10 11 10 11 11 11 11 11 11 11 11 11 11 11 12 12
12 11 11 11 11 11 11 11 11 11 10 10 10 10 10 10 10 11 10 10 11 11 11 11 11 11 11 11 11 11 11 12
11 11 11 10 10 10 10 10 10 10 10 10 10 10 10 10 10 10 10 10 10 10 11 11 11 11 11 11 11 11 10 10
11 11 11 10 10 10 10 10 10 10 10 10 10 10 10 10 10 10 10 10 11 11 11 11 11 11 11 11 10 10 10 9
11 11 11 11 10 10 10 10 9 9 9 10 10 10 10 10 11 11 11 10 10 10 11 11 11 11 11 10 10 10 9 9
11 11 11 11 11 10 10 10 9 9 10 10 10 10 11 11 11 11 11 11 11 11 11 11 11 11 11 11 10 10 9 9
12 11 11 10 10 10 9 9 9 9 10 10 10 11 11 11 11 11 11 11 11 11 11 11 11 10 11 10 10 10 9 8
12 12 11 10 10 10 9 9 9 9 10 10 10 10 10 10 10 11 11 10 10 10 10 10 10 10 10 9 9 9 8 8
12 12 11 10 10 10 9 9 9 9 10 10 10 10 10 10 10 10 10 10 10 10 10 10 10 9 9 9 8 8 8 8
12 12 11 11 10 10 10 10 10 9 10 10 10 10 10 10 10 10 9 9 10 10 10 9 9 9 9 8 8 7 7 7
13 12 12 11 10 10 10 10 10 9 9 9 10 10 10 10 10 9 9 9 9 9 9 9 9 8 8 8 7 7 7 6
12 12 11 11 10 10 10 9 9 9 9 9 9 9 9 9 9 9 9 8 9 8 8 8 8 8 7 7 7 7 6 6
12 12 12 11 11 10 10 10 9 9 9 9 9 9 9 9 9 8 8 8 8 7 7 7 7 7 7 7 6 6 6 5
13 12 13 12 11 11 10 10 9 9 9 9 9 9 8 8 8 8 8 7 7 7 6 6 5 5 4 4 4 5 4 4
13 13 13 12 11 10 9 9 9 9 9 8 8 8 8 8 8 7 7 7 6 6 6 5 4 3 3 2 2 1 0 1
14 13 13 12 11 10 10 10 10 9 9 9 8 8 8 7 7 7 7 6 6 5 4 4 3 2 1 1 0 -0 -1 -1
14 13 13 12 11 10 10 9 9 9 9 8 8 8 7 7 7 7 6 5 4 3 2 2 2 1 0 -0 -1 -1 -1 -2
14 13 13 12 11 10 10 9 9 9 9 8 8 7 7 7 7 6 5 4 3 2 1 1 0 -0 -1 -1 -2 -3 -3 -4
14 13 13 12 11 10 10 9 9 9 9 8 8 7 6 6 5 3 3 2 2 1 0 -0 -1 -2 -2 -3 -3 -4 -4 -5
14 14 13 12 11 10 10 9 9 9 9 8 7 6 6 5 3 3 3 1 1 -0 -1 -2 -2 -3 -4 -4 -5 -5 -5 -5